Location: Bastrop State Park
(30.1090°N, 97.2819°W)
Time: 02:57:38
(UTC-05:00)

ISS - Visible Passes

Search period start: 23 October 2014 00:00
Search period end: 02 November 2014 00:00
Orbit: 413 x 416 km, 51.6° (Epoch: 22 October)

Date Brightness Start Highest point End Pass type
(mag) Time Alt. Az. Time Alt. Az. Time Alt. Az.
24 Oct -1.1 20:15:47 10° NNW 20:16:58 17° N 20:16:58 17° N visible
25 Oct -1.2 19:27:24 10° N 19:29:09 14° NE 19:30:15 12° NE visible
25 Oct 0.0 21:02:48 10° NW 21:03:09 12° WNW 21:03:09 12° WNW visible
26 Oct -3.3 20:13:32 10° NW 20:16:37 70° N 20:16:37 70° N visible
27 Oct -2.6 19:24:28 10° NNW 19:27:34 35° NE 19:30:19 12° ESE visible
27 Oct 0.0 21:02:16 10° W 21:03:14 13° WSW 21:03:14 13° WSW visible
28 Oct -1.2 20:11:58 10° WNW 20:14:50 27° SW 20:17:16 13° S visible
29 Oct -2.7 19:22:19 10° NW 19:25:36 60° SW 19:28:51 10° SSE visible
31 Oct -0.2 19:21:06 10° W 19:23:15 16° SW 19:25:25 10° SSW visible
